SCP
-0 -0 0 0 0 0 0 0 0 0 0 0 0 0 0 0 0 -0 -0 -0 0 0 -0 -0 0 0 0 0 0 0 0 0 0 0 0 0 0 0
-0 -0 0 0 0 0 0 0 0 -0 0 -0 0 0 0 -0 -0 -0 -0 -0 0 0 0 0 -0 0 0 0 0 0 0 0 0 0 0 0 0 0
-0 -0 -0 0 0 0 0 0 0 0 -0 -0 0 0 -0 -0 -0 -0 -0 0 0 0 0 0 0 0 0 0 0 0 0 0 0 0 0 0 0 0
0 -0 -0 -0 -0 -0 -0 -0 -0 0 -0 -0 -0 0 0 0 0 0 0 0 0 0 0 0 0 0 0 0 0 0 0 0 0 0 0 0 0 0
0 0 0 -0 -0 -0 -0 -0 -0 -0 -0 -0 -0 -0 0 0 0 0 0 0 0 0 0 0 0 -0 0 0 0 0 0 0 0 0 0 0 0 0
0 0 0 0 0 0 0 0 0 -0 -0 -0 -0 0 -0 -0 0 -0 0 0 -0 -0 -0 0 0 0 0 0 0 0 0 0 0 0 0 0 0 0
0 -0 -0 0 0 0 0 0 0 0 0 0 0 0 0 0 0 0 0 0 0 0 0 0 0 0 0 0 0 0 0 0 0 0 0 0 0 0
0 0 0 0 0 0 0 0 0 0 0 1 0 0 0 0 0 0 0 0 0 0 0 0 0 0 -0 0 0 0 0 0 0 0 0 0 0 0
0 0 -0 0 0 0 0 0 0 0 0 0 0 0 0 0 0 0 0 0 0 0 0 0 0 0 0 0 0 0 0 0 0 0 0 0 0 0
0 0 0 0 0 0 0 0 0 0 0 0 0 0 0 0 0 0 0 0 0 0 0 0 0 0 0 0 0 0 0 0 0 0 0 0 0 0
0 0 0 0 0 0 0 0 0 0 0 0 0 0 0 0 0 0 0 0 0 0 0 0 0 0 0 0 0 0 0 0 0 0 0 0 0 0
0 0 0 0 0 0 1 1 0 0 1 1 1 0 0 0 0 0 0 0 0 0 0 0 0 0 0 0 0 0 0 0 0 0 0 0 0 0
0 0 0 0 0 0 0 0 0 0 0 0 0 1 1 1 0 0 0 0 0 0 0 0 0 0 0 0 0 0 0 0 0 0 0 0 0 0
0 0 0 0 0 0 0 0 0 0 0 0 0 0 0 0 1 1 1 0 1 1 1 0 0 0 0 0 0 0 0 0 0 0 0 0 0 0
0 0 0 0 0 0 0 0 0 0 0 0 0 0 0 0 0 0 1 1 1 1 1 0 0 0 0 0 0 0 0 0 0 0 0 0 0 0
0 0 0 0 0 0 0 0 0 0 0 0 0 0 0 0 0 0 1 1 1 0 0 0 0 0 0 0 0 0 0 1 0 0 0 0 0 0
0 0 0 0 0 0 0 0 0 0 0 0 0 0 0 0 0 0 0 0 0 0 0 0 0 1 1 1 1 1 1 1 1 0 0 0 0 0
0 0 0 0 0 0 0 0 0 0 0 1 0 0 0 0 0 0 0 0 0 0 0 0 0 0 2 1 2 1 1 1 1 1 0 0 0 0
0 0 0 0 0 0 0 0 0 0 0 1 1 1 1 0 0 0 0 1 1 1 0 0 0 0 0 0 0 0 2 1 2 1 1 1 1 1
0 0 0 0 0 0 0 0 0 0 0 0 0 0 1 1 1 1 1 1 1 0 0 0 0 0 0 0 0 -0 0 1 1 1 1 0 1 0
0 0 0 0 0 0 0 0 0 0 0 0 0 0 0 0 0 0 0 0 0 0 0 0 0 0 0 0 0 0 0 0 0 1 0 1 0 0
0 0 0 0 0 0 0 0 0 0 0 0 0 0 0 0 0 0 0 0 0 0 0 0 0 0 0 0 0 0 0 0 0 0 0 0 0 0
0 0 0 0 0 0 0 0 0 0 0 0 0 0 0 0 0 0 0 0 0 0 0 0 0 0 0 0 0 0 0 0 0 0 0 0 0 0
Wind_Speed_500mb
30 26 20 14 4 2 2 5 7 9 4 13 16 6 7 15 24 38 45 50 28 30 29 31 31 33 32 40 42 45 51 48 52 50 42 40 28 16
38 37 32 27 17 9 6 7 9 11 11 17 15 17 24 32 41 45 41 32 22 24 29 29 28 29 31 37 40 42 47 48 52 55 47 43 33 22
32 36 38 38 29 21 20 19 19 19 23 29 32 34 35 39 34 32 27 19 26 27 32 34 36 39 28 35 37 40 38 46 52 52 51 44 36 22
27 27 31 38 39 36 31 31 30 29 29 35 39 38 39 28 37 35 29 32 31 28 34 38 45 40 38 36 36 37 36 41 49 53 53 44 38 24
21 22 28 34 36 34 37 42 41 39 41 46 51 50 50 41 35 24 27 27 27 34 41 50 46 42 41 37 28 32 29 35 43 49 49 48 39 29
31 27 17 16 19 19 18 18 20 26 29 37 44 47 46 43 38 43 48 44 46 47 42 35 35 33 26 14 21 28 27 29 35 41 47 45 41 32
32 36 31 29 26 24 26 25 28 29 31 34 39 39 37 35 38 43 47 47 45 42 39 29 30 19 13 18 26 25 29 29 32 36 41 45 41 36
43 42 38 36 36 34 32 34 35 38 44 47 41 44 41 40 40 44 46 45 51 41 52 46 43 29 23 24 24 25 27 26 28 34 35 40 41 35
44 41 39 39 42 47 48 50 49 48 47 52 55 53 50 42 41 41 35 43 51 50 53 61 51 40 29 30 24 21 23 27 27 31 34 36 39 37
52 53 53 50 46 42 44 47 50 50 53 51 53 57 55 49 46 44 51 56 60 59 57 64 46 38 34 28 30 26 27 29 24 27 34 35 35 39
65 63 60 60 58 55 55 59 60 60 56 58 60 64 61 60 58 58 60 64 72 72 67 69 51 48 43 38 35 30 33 30 32 34 29 36 35 36
61 63 70 72 67 63 65 68 73 74 70 68 65 63 63 63 62 66 68 72 74 78 64 58 59 53 65 54 50 48 44 43 45 45 43 45 37 35
57 59 60 60 63 65 66 68 71 67 61 60 64 64 64 61 59 58 59 61 65 66 58 57 63 62 68 72 62 55 52 48 47 46 48 44 38 37
52 55 59 62 59 59 57 57 58 58 62 65 71 77 78 79 76 75 70 67 66 70 63 63 70 69 77 86 89 75 61 50 48 41 36 37 43 45
39 48 49 53 58 60 60 62 64 70 74 82 83 83 79 75 71 71 71 73 77 77 74 73 77 77 80 86 88 83 73 54 45 47 44 43 42 43
37 41 41 44 45 48 59 58 59 63 62 62 76 88 92 92 94 93 97 95 89 88 86 80 73 71 75 73 72 77 72 74 57 51 50 50 49 47
42 42 40 38 39 42 43 47 48 47 47 49 53 56 58 63 69 69 70 71 75 77 71 62 63 64 65 65 71 71 70 74 68 63 60 58 55 51
48 47 48 46 47 46 45 46 47 43 40 41 45 48 56 58 59 54 55 62 70 62 64 67 67 64 67 66 64 69 72 70 69 62 57 57 58 52
51 51 49 47 48 46 44 43 46 43 40 43 47 48 54 53 54 58 61 59 54 44 72 76 67 76 70 74 71 62 73 75 70 70 68 64 62 56
52 57 57 56 53 52 50 50 51 50 47 42 40 45 52 52 55 61 60 65 67 69 71 76 76 94 72 56 55 78 67 68 71 73 68 64 64 60
56 47 58 63 59 56 52 50 54 57 58 55 51 50 50 50 57 60 59 59 60 60 70 73 77 64 74 79 79 78 69 63 69 70 70 64 63 64
55 55 60 61 63 65 61 61 62 62 60 62 61 54 50 49 54 56 56 59 60 65 68 66 61 73 74 70 79 82 77 83 60 62 60 63 61 61
45 51 59 59 61 63 64 67 73 72 68 66 66 62 52 50 52 56 62 60 61 63 61 62 69 66 63 62 68 74 76 77 84 67 65 67 58 55
Wind_Direction_500mb
230 241 244 236 225 96 51 352 353 4 49 12 30 58 314 323 319 320 325 332 348 0 346 338 340 339 343 354 358 3 7 4 5 3 358 358 357 350
231 241 248 249 254 240 250 276 295 307 312 319 331 315 313 314 316 317 318 325 346 346 344 337 339 341 341 348 351 355 2 6 7 6 1 0 3 10
226 237 242 243 253 256 261 268 280 289 294 294 302 303 306 314 313 306 302 298 323 331 335 328 334 334 337 344 345 349 352 1 6 8 7 3 3 9
232 242 233 239 246 262 263 262 269 284 296 294 294 299 305 311 323 331 322 326 323 319 323 323 324 323 322 332 339 341 341 350 359 6 9 8 2 1
238 247 241 244 249 257 269 264 261 272 282 289 290 292 296 298 307 321 328 323 314 311 313 316 315 309 309 314 322 339 341 339 350 360 6 9 5 358
245 245 246 247 256 262 273 279 282 287 292 293 288 290 293 295 293 307 314 317 317 314 318 324 324 318 318 323 314 328 332 334 339 350 2 5 7 359
256 246 248 251 256 269 283 289 295 294 299 303 305 300 296 296 294 305 312 317 316 319 327 339 335 318 298 302 311 315 318 332 332 339 351 0 1 2
251 253 257 256 253 258 265 273 276 283 293 297 304 301 302 305 309 312 310 313 317 325 326 329 331 316 276 287 307 309 310 325 338 333 337 349 357 358
255 256 257 258 262 262 261 265 270 276 284 286 288 289 295 300 305 305 305 305 303 310 317 321 336 328 289 269 284 308 317 324 329 328 329 335 346 353
255 257 261 265 267 270 269 269 268 266 266 277 282 288 290 292 294 298 298 298 298 302 308 311 327 329 338 308 280 290 306 317 318 317 322 325 333 342
256 259 264 264 265 267 272 275 277 275 275 276 279 282 285 286 289 292 293 296 296 299 304 308 314 317 318 320 324 305 299 303 303 305 305 316 318 326
256 258 260 263 267 268 269 273 276 279 284 287 287 285 283 284 284 283 286 285 288 294 300 302 307 309 307 308 313 308 309 306 293 290 295 304 298 302
260 257 259 261 262 263 265 268 272 279 278 280 280 280 281 280 279 280 282 282 284 286 300 298 298 297 295 296 297 299 300 305 307 294 284 285 282 286
266 260 259 262 264 266 263 265 268 272 273 274 274 274 278 282 286 289 288 287 287 288 294 291 289 292 292 290 288 290 294 296 292 296 297 288 277 277
281 283 277 268 269 266 269 272 271 272 275 272 272 273 276 281 284 286 288 291 291 289 289 290 290 291 289 285 283 284 287 289 284 286 288 287 289 279
291 288 289 284 280 278 279 279 282 278 281 282 278 276 278 280 280 282 283 284 286 289 292 293 293 293 291 282 282 279 278 281 282 285 288 286 282 282
289 285 286 288 290 284 278 284 288 288 289 293 289 287 286 286 285 291 290 289 286 289 293 299 301 303 295 290 284 281 275 278 280 277 281 282 279 276
287 290 293 294 292 291 293 293 296 302 300 299 300 295 290 288 291 293 294 292 287 291 300 300 302 304 302 289 281 279 278 276 280 281 278 278 276 274
281 284 291 293 294 292 290 291 293 299 302 298 299 295 297 291 286 284 286 285 281 261 298 280 292 294 291 290 286 280 276 277 277 274 274 269 268 275
283 284 284 285 287 289 287 288 289 290 289 288 291 298 296 295 290 285 286 285 280 278 269 256 268 284 265 272 287 277 274 281 278 275 270 267 266 270
278 281 273 272 277 281 289 293 294 293 291 291 293 282 292 297 294 288 285 284 282 280 274 268 273 270 284 278 278 274 272 275 282 270 266 260 263 272
277 269 259 258 265 274 279 287 293 295 293 290 289 291 285 279 285 289 286 284 282 277 283 280 271 269 274 274 260 263 275 274 268 254 248 253 258 265
267 257 255 258 266 273 281 287 288 291 293 291 289 287 291 281 282 283 280 281 282 278 277 272 275 269 279 272 273 274 279 259 267 240 255 252 254 259
Wind_Speed_850mb
30 26 20 14 4 2 2 5 7 9 4 13 16 6 7 15 24 38 45 50 28 30 29 31 31 33 32 40 42 45 51 48 52 50 42 40 28 16
38 37 32 27 17 9 6 7 9 11 11 17 15 17 24 32 41 45 41 32 22 24 29 29 28 29 31 37 40 42 47 48 52 55 47 43 33 22
32 36 38 38 29 21 20 19 19 19 23 29 32 34 35 39 34 32 27 19 26 27 32 34 36 39 28 35 37 40 38 46 52 52 51 44 36 22
27 27 31 38 39 36 31 31 30 29 29 35 39 38 39 28 37 35 29 32 31 28 34 38 45 40 38 36 36 37 36 41 49 53 53 44 38 24
21 22 28 34 36 34 37 42 41 39 41 46 51 50 50 41 35 24 27 27 27 34 41 50 46 42 41 37 28 32 29 35 43 49 49 48 39 29
31 27 17 16 19 19 18 18 20 26 29 37 44 47 46 43 38 43 48 44 46 47 42 35 35 33 26 14 21 28 27 29 35 41 47 45 41 32
32 36 31 29 26 24 26 25 28 29 31 34 39 39 37 35 38 43 47 47 45 42 39 29 30 19 13 18 26 25 29 29 32 36 41 45 41 36
43 42 38 36 36 34 32 34 35 38 44 47 41 44 41 40 40 44 46 45 51 41 52 46 43 29 23 24 24 25 27 26 28 34 35 40 41 35
44 41 39 39 42 47 48 50 49 48 47 52 55 53 50 42 41 41 35 43 51 50 53 61 51 40 29 30 24 21 23 27 27 31 34 36 39 37
52 53 53 50 46 42 44 47 50 50 53 51 53 57 55 49 46 44 51 56 60 59 57 64 46 38 34 28 30 26 27 29 24 27 34 35 35 39
65 63 60 60 58 55 55 59 60 60 56 58 60 64 61 60 58 58 60 64 72 72 67 69 51 48 43 38 35 30 33 30 32 34 29 36 35 36
61 63 70 72 67 63 65 68 73 74 70 68 65 63 63 63 62 66 68 72 74 78 64 58 59 53 65 54 50 48 44 43 45 45 43 45 37 35
57 59 60 60 63 65 66 68 71 67 61 60 64 64 64 61 59 58 59 61 65 66 58 57 63 62 68 72 62 55 52 48 47 46 48 44 38 37
52 55 59 62 59 59 57 57 58 58 62 65 71 77 78 79 76 75 70 67 66 70 63 63 70 69 77 86 89 75 61 50 48 41 36 37 43 45
39 48 49 53 58 60 60 62 64 70 74 82 83 83 79 75 71 71 71 73 77 77 74 73 77 77 80 86 88 83 73 54 45 47 44 43 42 43
37 41 41 44 45 48 59 58 59 63 62 62 76 88 92 92 94 93 97 95 89 88 86 80 73 71 75 73 72 77 72 74 57 51 50 50 49 47
42 42 40 38 39 42 43 47 48 47 47 49 53 56 58 63 69 69 70 71 75 77 71 62 63 64 65 65 71 71 70 74 68 63 60 58 55 51
48 47 48 46 47 46 45 46 47 43 40 41 45 48 56 58 59 54 55 62 70 62 64 67 67 64 67 66 64 69 72 70 69 62 57 57 58 52
51 51 49 47 48 46 44 43 46 43 40 43 47 48 54 53 54 58 61 59 54 44 72 76 67 76 70 74 71 62 73 75 70 70 68 64 62 56
52 57 57 56 53 52 50 50 51 50 47 42 40 45 52 52 55 61 60 65 67 69 71 76 76 94 72 56 55 78 67 68 71 73 68 64 64 60
56 47 58 63 59 56 52 50 54 57 58 55 51 50 50 50 57 60 59 59 60 60 70 73 77 64 74 79 79 78 69 63 69 70 70 64 63 64
55 55 60 61 63 65 61 61 62 62 60 62 61 54 50 49 54 56 56 59 60 65 68 66 61 73 74 70 79 82 77 83 60 62 60 63 61 61
45 51 59 59 61 63 64 67 73 72 68 66 66 62 52 50 52 56 62 60 61 63 61 62 69 66 63 62 68 74 76 77 84 67 65 67 58 55
Wind_Direction_850mb
230 241 244 236 225 96 51 352 353 4 49 12 30 58 314 323 319 320 325 332 348 0 346 338 340 339 343 354 358 3 7 4 5 3 358 358 357 350
231 241 248 249 254 240 250 276 295 307 312 319 331 315 313 314 316 317 318 325 346 346 344 337 339 341 341 348 351 355 2 6 7 6 1 0 3 10
226 237 242 243 253 256 261 268 280 289 294 294 302 303 306 314 313 306 302 298 323 331 335 328 334 334 337 344 345 349 352 1 6 8 7 3 3 9
232 242 233 239 246 262 263 262 269 284 296 294 294 299 305 311 323 331 322 326 323 319 323 323 324 323 322 332 339 341 341 350 359 6 9 8 2 1
238 247 241 244 249 257 269 264 261 272 282 289 290 292 296 298 307 321 328 323 314 311 313 316 315 309 309 314 322 339 341 339 350 360 6 9 5 358
245 245 246 247 256 262 273 279 282 287 292 293 288 290 293 295 293 307 314 317 317 314 318 324 324 318 318 323 314 328 332 334 339 350 2 5 7 359
256 246 248 251 256 269 283 289 295 294 299 303 305 300 296 296 294 305 312 317 316 319 327 339 335 318 298 302 311 315 318 332 332 339 351 0 1 2
251 253 257 256 253 258 265 273 276 283 293 297 304 301 302 305 309 312 310 313 317 325 326 329 331 316 276 287 307 309 310 325 338 333 337 349 357 358
255 256 257 258 262 262 261 265 270 276 284 286 288 289 295 300 305 305 305 305 303 310 317 321 336 328 289 269 284 308 317 324 329 328 329 335 346 353
255 257 261 265 267 270 269 269 268 266 266 277 282 288 290 292 294 298 298 298 298 302 308 311 327 329 338 308 280 290 306 317 318 317 322 325 333 342
256 259 264 264 265 267 272 275 277 275 275 276 279 282 285 286 289 292 293 296 296 299 304 308 314 317 318 320 324 305 299 303 303 305 305 316 318 326
256 258 260 263 267 268 269 273 276 279 284 287 287 285 283 284 284 283 286 285 288 294 300 302 307 309 307 308 313 308 309 306 293 290 295 304 298 302
260 257 259 261 262 263 265 268 272 279 278 280 280 280 281 280 279 280 282 282 284 286 300 298 298 297 295 296 297 299 300 305 307 294 284 285 282 286
266 260 259 262 264 266 263 265 268 272 273 274 274 274 278 282 286 289 288 287 287 288 294 291 289 292 292 290 288 290 294 296 292 296 297 288 277 277
281 283 277 268 269 266 269 272 271 272 275 272 272 273 276 281 284 286 288 291 291 289 289 290 290 291 289 285 283 284 287 289 284 286 288 287 289 279
291 288 289 284 280 278 279 279 282 278 281 282 278 276 278 280 280 282 283 284 286 289 292 293 293 293 291 282 282 279 278 281 282 285 288 286 282 282
289 285 286 288 290 284 278 284 288 288 289 293 289 287 286 286 285 291 290 289 286 289 293 299 301 303 295 290 284 281 275 278 280 277 281 282 279 276
287 290 293 294 292 291 293 293 296 302 300 299 300 295 290 288 291 293 294 292 287 291 300 300 302 304 302 289 281 279 278 276 280 281 278 278 276 274
281 284 291 293 294 292 290 291 293 299 302 298 299 295 297 291 286 284 286 285 281 261 298 280 292 294 291 290 286 280 276 277 277 274 274 269 268 275
283 284 284 285 287 289 287 288 289 290 289 288 291 298 296 295 290 285 286 285 280 278 269 256 268 284 265 272 287 277 274 281 278 275 270 267 266 270
278 281 273 272 277 281 289 293 294 293 291 291 293 282 292 297 294 288 285 284 282 280 274 268 273 270 284 278 278 274 272 275 282 270 266 260 263 272
277 269 259 258 265 274 279 287 293 295 293 290 289 291 285 279 285 289 286 284 282 277 283 280 271 269 274 274 260 263 275 274 268 254 248 253 258 265
267 257 255 258 266 273 281 287 288 291 293 291 289 287 291 281 282 283 280 281 282 278 277 272 275 269 279 272 273 274 279 259 267 240 255 252 254 259